Regional Weather Roundup
Issued by NWS

Home | Current Version | Previous Version | Text Only | Print | Product List | Glossary On
Versions: 1 2 3 4 5 6 7 8 9 10 11 12 13 14 15 16 17 18 19 20 21 22 23 24 25 26 27 28 29 30 31 32 33 34 35 36 37 38 39 40 41 42 43 44 45 46 47 48 49 50
000
ASUS44 KOUN 260310
RWROK

WEATHER ROUNDUP FOR OKLAHOMA
NATIONAL WEATHER SERVICE NORMAN OK
900 PM CST SAT FEB 25 2017

NOTE: "FAIR" INDICATES FEW OR NO CLOUDS BELOW 12,000 FEET WITH NO
      SIGNIFICANT WEATHER AND/OR OBSTRUCTIONS TO VISIBILITY.

OKZ001>007-009>012-014-015-017-260400-
NORTHWEST OKLAHOMA AND THE PANHANDLE

CITY           SKY/WX    TMP DP  RH WIND       PRES   REMARKS
GAGE           CLEAR     37  15  40 S17G24    29.91F WCI  27
GUYMON         CLOUDY    41  19  41 SE16G22   29.79S WCI  33
ENID/WOODRING  CLEAR     34  23  64 SE9       30.01F WCI  26
$$

OKZ016-021>023-033>039-044-045-260400-
SOUTHWEST OKLAHOMA

CITY           SKY/WX    TMP DP  RH WIND       PRES   REMARKS
LAWTON/FT SILL CLEAR     38  20  47 SE3       30.03F
FREDERICK      CLEAR     38  24  57 SE9       30.00F WCI  31
CLINTON        CLEAR     37  18  46 SE14      29.99F WCI  28
HOBART         CLEAR     36  24  62 SE10      30.01F WCI  28
ALTUS AFB      CLEAR     35  21  57 SE7       30.01F WCI  29
$$

OKZ018>020-024>031-260400-
CENTRAL OKLAHOMA

CITY           SKY/WX    TMP DP  RH WIND       PRES   REMARKS
OKLAHOMA CITY  PTCLDY    33  19  56 SE10      30.04F WCI  25
OKC/WILEY POST CLEAR     41  16  36 SE8       30.04F
OKC/TINKER AFB CLEAR     37  14  40 S12       30.04F WCI  29
STILLWATER     CLEAR     36  16  44 CALM      30.06F
GUTHRIE        CLEAR     37  18  46 SE6       30.05F WCI  32
$$

OKZ008-013-054>072-260400-
NORTHEAST OKLAHOMA

CITY           SKY/WX    TMP DP  RH WIND       PRES   REMARKS
TULSA          CLEAR     37  18  46 SE6       30.09R WCI  32
TULSA/JONES    CLEAR     34  21  59 CALM      30.10R
PONCA CITY     CLEAR     37  17  44 SE3       30.05F
BARTLESVILLE   CLEAR     28  19  69 CALM      30.10R
MUSKOGEE       CLEAR     36  18  48 CALM      30.12S
$$

OKZ032-040>043-046>053-073>077-260400-
SOUTH CENTRAL/SOUTHEAST OKLAHOMA

CITY           SKY/WX    TMP DP  RH WIND       PRES   REMARKS
ARDMORE/DWNTWN CLEAR     36  19  51 CALM      30.08S
MCALESTER      PTCLDY    33  24  69 CALM      30.10S
$$





USA.gov is the U.S. government's official web portal to all federal, state and local government web resources and services.